User: anonymous   Login
Location: Berg
(47.2344°N, 9.5296°E)
Time: 05:09:25
(UTC+00:00)
Language:

Cosmos 1602 Rocket - Orbit

View from above orbital plane
View from above orbital plane
View from above satellite
View from above satellite

Ground track
Ground track

The orbit data is extracted from the following two-line orbital elements,

1 15332U 84105B   21101.91034959  .00000096  00000-0  86117-5 0  9990
2 15332  82.5339 324.2273 0022701  90.6093 280.5141 14.83456376952260
Epoch (UTC): 11 April 2021 21:50:54
Eccentricity: 0.0022701
inclination: 82.5339°
perigee height: 602 km
apogee height: 634 km
right ascension of ascending node: 324.2273°
argument of perigee: 90.6093°
revolutions per day: 14.83456376
mean anomaly at epoch: 280.5141°
orbit number at epoch: 95226

The dashed part of the orbit path shows where the satellite is in the earth's shadow,  

DLR